sat.trackr.live / text

‹ back to catalog

STARLINK-36264

NORAD 68307 · 2026-057P

PAYLOAD ACTIVE UNKNOWN

§ Identity

Operator
Country
US
Launch date
2026-03-20
Launch site
AFWTR
Launch vehicle
Mass (kg)
RCS (m²)

Purposes: comms

External: N2YO · Heavens-Above · Gunter

§ Orbital elements

Epoch: 2026-05-25T04:00:03.998880Z

Period
91.42 min
Inclination
97.2841°
Eccentricity
0.0001451
Mean motion
15.75176428 rev/d
Perigee alt
343.2 km
Apogee alt
345.1 km
Semi-major
6,722.3 km
B*
-1.1258e-4
RAAN
271.3776°
Arg perigee
78.3427°
Mean anomaly
216.0518°
Rev number
598

§ Raw data

STARLINK-362641 68307U 26057P   26145.16671295 -.00016878  00000+0 -11258-3 0  99902 68307  97.2841 271.3776 0001451  78.3427 216.0518 15.75176428  5983

JSON: /api/v1/satellites/68307 · /tle

For live sub-satellite position, see the globe view (requires WebGL).

§ Visibility from observer

Set your observer location to see the next 7 days of passes ≥ 10°. The values pass through the URL so the page stays shareable.

No JS? Fill the form by hand. The geolocation button needs JavaScript.